| time (UTC) | temp F | wind direction | speed MPH | gust MPH | rain 1hr in | rain 24hr in | rain mn in | humidity % | barometer mb |
| 20260507010049 | 66 | 304 | 4.0 | 10.0 | 0.00 | 0.00 | 0.00 | 27 | 1009.5 |
| 20260507004548 | 65 | 327 | 8.0 | 12.0 | 0.00 | 0.00 | 0.00 | 26 | 1009.6 |
| 20260507003047 | 66 | 342 | 11.0 | 17.0 | 0.00 | 0.00 | 0.00 | 26 | 1009.7 |
| 20260507001600 | 66 | 335 | 9.0 | 16.0 | 0.00 | 0.00 | 0.00 | 25 | 1009.8 |
| 20260507000122 | 66 | 302 | 16.0 | 22.0 | 0.00 | 0.00 | 0.00 | 24 | 1009.8 |
| 20260506234615 | 67 | 291 | 18.0 | 24.0 | 0.00 | 0.00 | 0.00 | 23 | 1009.8 |
| 20260506233053 | 65 | 289 | 14.0 | 19.0 | 0.00 | 0.00 | 0.00 | 24 | 1009.9 |
| 20260506231552 | 66 | 302 | 11.0 | 19.0 | 0.00 | 0.00 | 0.00 | 25 | 1010.0 |
| 20260506230052 | 66 | 284 | 15.0 | 25.0 | 0.00 | 0.00 | 0.00 | 25 | 1010.0 |
| 20260506224542 | 65 | 273 | 9.0 | 17.0 | 0.00 | 0.00 | 0.00 | 25 | 1010.1 |
| 20260506223040 | 65 | 275 | 8.0 | 16.0 | 0.00 | 0.00 | 0.00 | 27 | 1010.2 |
| 20260506221550 | 66 | 282 | 10.0 | 21.0 | 0.00 | 0.00 | 0.00 | 27 | 1010.5 |
| 20260506220045 | 65 | 286 | 13.0 | 21.0 | 0.00 | 0.00 | 0.00 | 26 | 1010.6 |
| 20260506214537 | 64 | 218 | 3.0 | 16.0 | 0.00 | 0.00 | 0.00 | 28 | 1010.9 |
| 20260506213043 | 64 | 290 | 9.0 | 17.0 | 0.00 | 0.00 | 0.00 | 29 | 1011.0 |
| 20260506211542 | 63 | 309 | 9.0 | 20.0 | 0.00 | 0.00 | 0.00 | 27 | 1011.1 |
| 20260506210042 | 62 | 312 | 8.0 | 14.0 | 0.00 | 0.00 | 0.00 | 28 | 1011.2 |
| 20260506204533 | 61 | 180 | 6.0 | 15.0 | 0.00 | 0.00 | 0.00 | 27 | 1011.5 |
| 20260506203027 | 60 | 261 | 8.0 | 14.0 | 0.00 | 0.00 | 0.00 | 29 | 1011.9 |
| 20260506201533 | 58 | 233 | 7.0 | 17.0 | 0.00 | 0.00 | 0.00 | 27 | 1011.9 |
| 20260506200029 | 59 | 227 | 11.0 | 17.0 | 0.00 | 0.00 | 0.00 | 28 | 1012.0 |
| 20260506194521 | 58 | 221 | 9.0 | 18.0 | 0.00 | 0.00 | 0.00 | 30 | 1012.4 |
| 20260506193030 | 57 | 248 | 9.0 | 14.0 | 0.00 | 0.00 | 0.00 | 29 | 1012.5 |
| 20260506191516 | 57 | 200 | 10.0 | 15.0 | 0.00 | 0.00 | 0.00 | 30 | 1012.7 |
| 20260506190017 | 55 | 210 | 4.0 | 18.0 | 0.00 | 0.00 | 0.00 | 29 | 1012.8 |
| 20260506184514 | 55 | 224 | 4.0 | 15.0 | 0.00 | 0.00 | 0.00 | 30 | 1013.1 |
| 20260506183012 | 53 | 201 | 7.0 | 16.0 | 0.00 | 0.00 | 0.00 | 30 | 1013.2 |
| 20260506181526 | 53 | 242 | 7.0 | 18.0 | 0.00 | 0.00 | 0.00 | 31 | 1013.4 |
| 20260506180014 | 53 | 188 | 12.0 | 18.0 | 0.00 | 0.00 | 0.00 | 28 | 1013.6 |
| 20260506174511 | 51 | 190 | 9.0 | 17.0 | 0.00 | 0.00 | 0.00 | 31 | 1013.7 |
| 20260506173010 | 51 | 203 | 12.0 | 20.0 | 0.00 | 0.00 | 0.00 | 31 | 1013.9 |
| 20260506171513 | 51 | 196 | 11.0 | 17.0 | 0.00 | 0.00 | 0.00 | 31 | 1014.1 |
| 20260506170013 | 50 | 184 | 9.0 | 16.0 | 0.00 | 0.00 | 0.00 | 34 | 1014.4 |
| 20260506164511 | 50 | 196 | 10.0 | 14.0 | 0.00 | 0.00 | 0.00 | 32 | 1014.5 |
| 20260506163015 | 49 | 224 | 10.0 | 16.0 | 0.00 | 0.00 | 0.00 | 34 | 1014.7 |
| 20260506161508 | 48 | 199 | 11.0 | 18.0 | 0.00 | 0.00 | 0.00 | 31 | 1014.9 |
| 20260506160055 | 48 | 184 | 12.0 | 17.0 | 0.00 | 0.00 | 0.00 | 35 | 1015.0 |
| 20260506154609 | 47 | 176 | 12.0 | 19.0 | 0.00 | 0.00 | 0.00 | 35 | 1015.1 |
| 20260506153051 | 46 | 192 | 12.0 | 17.0 | 0.00 | 0.00 | 0.00 | 38 | 1015.3 |
| 20260506151547 | 45 | 201 | 12.0 | 18.0 | 0.00 | 0.00 | 0.00 | 39 | 1015.4 |
| 20260506150046 | 44 | 184 | 13.0 | 18.0 | 0.00 | 0.00 | 0.00 | 42 | 1015.6 |
| 20260506144551 | 44 | 194 | 14.0 | 20.0 | 0.00 | 0.00 | 0.00 | 43 | 1015.6 |
| 20260506143041 | 43 | 189 | 13.0 | 17.0 | 0.00 | 0.00 | 0.00 | 45 | 1015.7 |
| 20260506141539 | 43 | 180 | 12.0 | 18.0 | 0.00 | 0.00 | 0.00 | 47 | 1015.8 |
| 20260506140046 | 42 | 184 | 12.0 | 17.0 | 0.00 | 0.00 | 0.00 | 50 | 1016.0 |
| 20260506134543 | 41 | 194 | 11.0 | 16.0 | 0.00 | 0.00 | 0.00 | 51 | 1015.9 |
| 20260506133055 | 40 | 182 | 11.0 | 15.0 | 0.00 | 0.00 | 0.00 | 53 | 1016.2 |
| 20260506131537 | 38 | 191 | 10.0 | 16.0 | 0.00 | 0.00 | 0.00 | 55 | 1016.2 |
| 20260506130029 | 36 | 182 | 10.0 | 14.0 | 0.00 | 0.00 | 0.00 | 53 | 1016.2 |
| 20260506124526 | 35 | 195 | 10.0 | 14.0 | 0.00 | 0.00 | 0.00 | 51 | 1016.3 |
| 20260506123023 | 34 | 185 | 7.0 | 11.0 | 0.00 | 0.00 | 0.00 | 52 | 1016.3 |
| 20260506121522 | 33 | 199 | 8.0 | 11.0 | 0.00 | 0.00 | 0.00 | 53 | 1016.3 |
| 20260506120020 | 33 | 187 | 8.0 | 11.0 | 0.00 | 0.00 | 0.00 | 55 | 1016.4 |
| 20260506114522 | 32 | 193 | 8.0 | 11.0 | 0.00 | 0.00 | 0.00 | 56 | 1016.6 |
| 20260506113018 | 32 | 188 | 7.0 | 13.0 | 0.00 | 0.00 | 0.00 | 56 | 1016.8 |
| 20260506111515 | 32 | 202 | 7.0 | 11.0 | 0.00 | 0.00 | 0.00 | 57 | 1016.8 |
| 20260506110017 | 31 | 193 | 9.0 | 11.0 | 0.00 | 0.00 | 0.00 | 58 | 1017.1 |
| 20260506104533 | 31 | 229 | 4.0 | 6.0 | 0.00 | 0.00 | 0.00 | 58 | 1017.1 |
| 20260506103014 | 31 | 239 | 4.0 | 8.0 | 0.00 | 0.00 | 0.00 | 59 | 1017.2 |
| 20260506101514 | 31 | 219 | 4.0 | 6.0 | 0.00 | 0.00 | 0.00 | 58 | 1017.3 |
| 20260506100017 | 31 | 235 | 5.0 | 7.0 | 0.00 | 0.00 | 0.00 | 57 | 1017.5 |
| 20260506094514 | 31 | 241 | 4.0 | 8.0 | 0.00 | 0.00 | 0.00 | 59 | 1017.6 |
| 20260506093014 | 30 | 229 | 4.0 | 8.0 | 0.00 | 0.00 | 0.00 | 60 | 1017.7 |
| 20260506091511 | 30 | 230 | 5.0 | 7.0 | 0.00 | 0.00 | 0.00 | 62 | 1018.0 |
| 20260506090009 | 30 | 211 | 4.0 | 7.0 | 0.00 | 0.00 | 0.00 | 62 | 1018.0 |
| 20260506084508 | 30 | 234 | 3.0 | 7.0 | 0.00 | 0.00 | 0.00 | 61 | 1018.1 |
| 20260506083009 | 30 | 227 | 3.0 | 5.0 | 0.00 | 0.00 | 0.00 | 60 | 1018.3 |
| 20260506081509 | 30 | 227 | 2.0 | 5.0 | 0.00 | 0.00 | 0.00 | 59 | 1018.4 |
| 20260506073058 | 30 | 227 | 3.0 | 5.0 | 0.00 | 0.00 | 0.00 | 58 | 1018.9 |
| 20260506071620 | 31 | 227 | 2.0 | 4.0 | 0.00 | 0.00 | 0.00 | 56 | 1019.0 |
| 20260506061551 | 32 | 336 | 1.0 | 3.0 | 0.00 | 0.00 | 0.00 | 54 | 1019.2 |
| 20260506044603 | 34 | 336 | 0.0 | 2.0 | 0.00 | 0.00 | 0.00 | 50 | 1019.2 |
| 20260506043055 | 34 | 336 | 0.0 | 1.0 | 0.00 | 0.00 | 0.00 | 51 | 1019.3 |
| 20260506041553 | 34 | 336 | 0.0 | 0.0 | 0.00 | 0.00 | 0.00 | 51 | 1019.4 |
| 20260506040052 | 34 | 336 | 1.0 | 3.0 | 0.00 | 0.00 | 0.00 | 51 | 1019.5 |
| 20260506034554 | 33 | 336 | 2.0 | 3.0 | 0.00 | 0.00 | 0.00 | 52 | 1019.3 |
| 20260506033049 | 34 | 336 | 2.0 | 4.0 | 0.00 | 0.00 | 0.00 | 51 | 1019.4 |
| 20260506031552 | 35 | 336 | 4.0 | 5.0 | 0.00 | 0.00 | 0.00 | 50 | 1019.4 |
| 20260506030051 | 35 | 337 | 3.0 | 4.0 | 0.00 | 0.00 | 0.00 | 50 | 1019.4 |
| 20260506024550 | 36 | 336 | 2.0 | 5.0 | 0.00 | 0.00 | 0.00 | 48 | 1019.3 |
| 20260506023054 | 37 | 338 | 3.0 | 6.0 | 0.00 | 0.00 | 0.00 | 47 | 1019.1 |
| 20260506021556 | 38 | 351 | 5.0 | 10.0 | 0.00 | 0.00 | 0.00 | 46 | 1019.1 |
| 20260506020047 | 39 | 349 | 8.0 | 13.0 | 0.00 | 0.00 | 0.00 | 44 | 1019.2 |
| 20260506014547 | 40 | 347 | 10.0 | 15.0 | 0.00 | 0.00 | 0.00 | 42 | 1019.3 |
| 20260506013047 | 41 | 338 | 8.0 | 19.0 | 0.00 | 0.00 | 0.00 | 42 | 1019.1 |
| 20260506011550 | 41 | 336 | 13.0 | 17.0 | 0.00 | 0.00 | 0.00 | 40 | 1019.1 |